"Pseudo-MPEC" for CEJGF72

Created 2026 Apr 17 11:35:06 UT using Find_Orb

Click here for an explanation of pseudo-MPECs

 
 Astrometry: 
     CEJGF72*1C2026 04 16.30852613 25 34.230+06 24 09.43   ~4G85 20.45GVNEOCPG96
     CEJGF72 1C2026 04 16.31366913 25 35.389+06 23 58.78   ~4G85       VNEOCPG96
     CEJGF72 1C2026 04 16.31883013 25 36.469+06 23 49.31   ~4G85 21.31GVNEOCPG96
     CEJGF72 1C2026 04 16.32397713 25 37.538+06 23 39.77   ~4G85 21.47GVNEOCPG96
     CEJGF72  C2026 04 16.33794613 25 39.598+06 23 05.18   ~4G8o 21.1 GWNEOCPH01
     CEJGF72  C2026 04 16.34329813 25 40.747+06 22 54.86   ~4G8o 21.0 GWNEOCPH01
     CEJGF72  C2026 04 16.35169013 25 42.563+06 22 38.50   ~4G8o 21.2 GWNEOCPH01
     CEJGF72  C2026 04 16.35878313 25 44.110+06 22 24.59   ~4G8o 21.1 GWNEOCPH01
     CEJGF72 |C2026 04 17.06926613 29 28.900+06 05 40.30   ~4H2Z 21.7 GVNEOCP807
     CEJGF72 |C2026 04 17.07654613 29 30.340+06 05 28.20   ~4H2Z 21.5 GVNEOCP807
     CEJGF72 |C2026 04 17.08382513 29 31.780+06 05 16.30   ~4H2Z 21.4 GVNEOCP807
     CEJGF72 1C2026 04 17.20311513 30 03.370+05 57 15.59   ~4H5K 21.25GVNEOCPI52
     CEJGF72 1C2026 04 17.20620813 30 03.928+05 57 10.58   ~4H5K 21.42GVNEOCPI52
     CEJGF72 1C2026 04 17.20929513 30 04.561+05 57 05.62   ~4H5K 21.49GVNEOCPI52
     CEJGF72 1C2026 04 17.21238413 30 05.188+05 57 00.83   ~4H5K 21.48GVNEOCPI52
     CEJGF72 KC2026 04 17.22019413 30 00.82 +05 56 22.3    ~4H5o 22.0 GVNEOCPH21
     CEJGF72 KC2026 04 17.22308313 30 01.32 +05 56 17.6    ~4H5o 22.3 GVNEOCPH21

Station data:
(807) Cerro Tololo Observatory, La Serena  (S30.169133 W70.805900)  Chile.
   Observer R. Holmes. 0.61-m f/6.5 astrograph + CCD.
(G96) Mt. Lemmon Survey  (N32.442729 W110.788720)  US/Arizona.  Observer E.
   J. Christensen. Measurers T. Beuden, V. F. Carvajal, D. Fay, J. B.
   Fazekas, D. C. Fuls, A. R. Gibbs, A. D. Grauer, H. Gröller, J. K. Hogan,
   R. A. Kowalski, S. M. Larson, G. J. Leonard, D. Rankin, R. L. Seaman, F.
   C. Shelly, K. W. Wierzchoś. 1.5-m reflector + 10K CCD.
(H01) Magdalena Ridge Observatory, Socorro  (N33.984833 W107.189333)  US/New
   Mexico.  Observers W. H. Ryan, E. V. Ryan. Measurer W. H. Ryan. 2.4-m
   f/8.9 reflector + CCD.
(H21) Astronomical Research Observatory, Westfield  (N39.483054 W87.968270)
   US/Illinois.  Observer R. Holmes. Measurers S. Foglia, L. Buzzi, T.
   Linder, R. Holmes. 0.40-m f/5.32 astrograph + CCD.
(I52) Steward Observatory, Mt. Lemmon Station  (N32.442570 W110.788920)
   US/Arizona. Measurers T. Beuden, V. F. Carvajal, D. Fay, J. B. Fazekas, D.
   C. Fuls, A. R. Gibbs, A. D. Grauer, H. Gröller, J. K. Hogan, R. A.
   Kowalski, S. M. Larson, G. J. Leonard, D. Rankin, R. L. Seaman, F. C.
   Shelly, K. W. Wierzchoś. 1.0-m prime focus + CCD.

Orbital elements:  CEJGF72
   Perihelion 2026 Feb 15.610550 +/- 0.163 TT = 14:39:11.5 (JD 2461087.110550)
Epoch 2026 Apr 17.0 TT = JDT 2461147.5   Earth MOID: 0.0006   Ma: 0.0793
M  48.369312815 +/- 0.13            (J2000 ecliptic)             AutoNEOCP
n   0.800956336 +/- 0.000222        Peri.  306.533416 +/- 0.38
a   1.148321479 +/- 0.000212        Node   193.458642 +/- 0.11
e   0.18194673 +/- 0.000997         Incl.    1.995204 +/- 0.016
P   1.231/449.454d         H 28.20  G  0.15   U  7.1
q 0.939388136 +/- 0.00112    Q 1.357254822 +/- 0.00122
From 17 observations 2026 Apr. 16-17 (21.9 hr); mean residual 0".30
Residuals in arcseconds: 
260416 G96  .96-  .38+    260416 H01  .12+  .05-    260417 I52  .78-  .01-    
260416 G96  .23+  .44-    260416 H01  .13+  .11-    260417 I52  .11-  .03+    
260416 G96  .18+  .02-    260417 807  .36+  .14+    260417 I52  .52+  .25+    
260416 G96  .00   .32+    260417 807  .11-  .02+    260417 H21  .44+  .28-    
260416 H01  .19+  .11-    260417 807  .24-  .13+    260417 H21  .00   .12-    
260416 H01  .14+  .03-    260417 I52  .26-  .01-    

Ephemerides (geocentric):
Date (UTC) HH   RA             Dec           delta  r     elong  mag " sig PA
---- --------  ------------   ------------  ------ ------ -----  --- --------
2026 04 17 12  13 31 13.184   +05 50 59.80  .03378 1.0363 163.5 21.8 .836 109
2026 04 17 13  13 31 23.920   +05 49 51.19  .03388 1.0364 163.5 21.8 .955 109
2026 04 17 14  13 31 34.589   +05 48 42.90  .03399 1.0365 163.5 21.8 1.08 109
2026 04 17 15  13 31 45.193   +05 47 34.94  .03409 1.0366 163.5 21.8 1.21 109
2026 04 17 16  13 31 55.731   +05 46 27.30  .03420 1.0367 163.6 21.8 1.34 109
2026 04 17 17  13 32 06.205   +05 45 19.98  .03431 1.0368 163.6 21.8 1.48 109
2026 04 17 18  13 32 16.614   +05 44 12.97  .03441 1.0370 163.6 21.8 1.62 109
2026 04 17 19  13 32 26.959   +05 43 06.28  .03452 1.0371 163.6 21.8 1.77 109
2026 04 17 20  13 32 37.242   +05 41 59.90  .03462 1.0372 163.6 21.8 1.92 110
2026 04 17 21  13 32 47.462   +05 40 53.82  .03473 1.0373 163.6 21.8 2.08 110
2026 04 17 22  13 32 57.620   +05 39 48.05  .03484 1.0374 163.6 21.9 2.24 110
2026 04 17 23  13 33 07.717   +05 38 42.59  .03494 1.0375 163.6 21.9 2.40 110
2026 04 18 00  13 33 17.753   +05 37 37.42  .03505 1.0376 163.6 21.9 2.57 110
2026 04 18 01  13 33 27.728   +05 36 32.54  .03515 1.0378 163.6 21.9 2.74 110
2026 04 18 02  13 33 37.644   +05 35 27.97  .03526 1.0379 163.6 21.9 2.92 110
2026 04 18 03  13 33 47.501   +05 34 23.68  .03537 1.0380 163.6 21.9 3.10 110
2026 04 18 04  13 33 57.299   +05 33 19.68  .03547 1.0381 163.6 21.9 3.28 110
2026 04 18 05  13 34 07.039   +05 32 15.97  .03558 1.0382 163.6 21.9 3.47 110
2026 04 18 06  13 34 16.721   +05 31 12.54  .03568 1.0383 163.6 21.9 3.66 110
2026 04 18 07  13 34 26.346   +05 30 09.39  .03579 1.0384 163.6 21.9 3.86 110
2026 04 18 08  13 34 35.914   +05 29 06.52  .03590 1.0386 163.6 21.9 4.05 110
2026 04 18 09  13 34 45.426   +05 28 03.93  .03600 1.0387 163.6 21.9 4.26 110
2026 04 18 10  13 34 54.882   +05 27 01.61  .03611 1.0388 163.6 21.9 4.46 110
2026 04 18 11  13 35 04.283   +05 25 59.57  .03622 1.0389 163.6 21.9 4.67 111
2026 04 18 12  13 35 13.630   +05 24 57.79  .03632 1.0390 163.6 21.9 4.88 111
2026 04 18 13  13 35 22.922   +05 23 56.28  .03643 1.0391 163.6 22.0 5.09 111
2026 04 18 14  13 35 32.160   +05 22 55.03  .03654 1.0392 163.6 22.0 5.31 111
2026 04 18 15  13 35 41.345   +05 21 54.05  .03664 1.0394 163.6 22.0 5.53 111
2026 04 18 16  13 35 50.477   +05 20 53.33  .03675 1.0395 163.6 22.0 5.75 111
2026 04 18 17  13 35 59.557   +05 19 52.86  .03686 1.0396 163.6 22.0 5.98 111
2026 04 18 18  13 36 08.585   +05 18 52.65  .03697 1.0397 163.6 22.0 6.21 111
2026 04 18 19  13 36 17.561   +05 17 52.69  .03707 1.0398 163.6 22.0 6.44 111
2026 04 18 20  13 36 26.486   +05 16 52.99  .03718 1.0399 163.6 22.0 6.68 111
2026 04 18 21  13 36 35.361   +05 15 53.53  .03729 1.0400 163.6 22.0 6.91 111
2026 04 18 22  13 36 44.185   +05 14 54.32  .03739 1.0402 163.6 22.0 7.15 111
2026 04 18 23  13 36 52.959   +05 13 55.35  .03750 1.0403 163.6 22.0 7.39 111
2026 04 19 00  13 37 01.684   +05 12 56.63  .03761 1.0404 163.6 22.0 7.64 111
2026 04 19 01  13 37 10.360   +05 11 58.15  .03772 1.0405 163.7 22.0 7.89 111
2026 04 19 02  13 37 18.988   +05 10 59.90  .03782 1.0406 163.7 22.0 8.13 111
2026 04 19 03  13 37 27.567   +05 10 01.90  .03793 1.0407 163.7 22.0 8.39 111
2026 04 19 04  13 37 36.099   +05 09 04.12  .03804 1.0409 163.7 22.0 8.64 111
2026 04 19 05  13 37 44.583   +05 08 06.58  .03815 1.0410 163.7 22.1 8.90 111
2026 04 19 06  13 37 53.020   +05 07 09.27  .03825 1.0411 163.7 22.1 9.15 111
2026 04 19 07  13 38 01.411   +05 06 12.19  .03836 1.0412 163.7 22.1 9.41 111
2026 04 19 08  13 38 09.755   +05 05 15.34  .03847 1.0413 163.7 22.1 9.68 111
2026 04 19 09  13 38 18.054   +05 04 18.71  .03858 1.0414 163.7 22.1 9.94 111
2026 04 19 10  13 38 26.307   +05 03 22.30  .03868 1.0415 163.7 22.1 10.2 111
2026 04 19 11  13 38 34.516   +05 02 26.12  .03879 1.0417 163.7 22.1 10.5 111